Starlink 2220

operational
NORAD ID: 48570 Int'l Des: 2021-041 Owner: SPXS Country: US Constellation: starlink
LEOCIRCULARSTARLINK_TYPE

About Starlink 2220

Description loading...

Live Position

Loading 3D Globe...

Upcoming Passes

Altitude History

Altitude vs Time

uPlot chart will show altitude changes over time

Two-Line Element Set

1 48570U 21041T 25258.59565258 -.00000298 00000-0 -11192-5 0 9999
2 48570 53.0545 207.6451 0001430 90.9271 269.1882 15.06405685238660
Epoch: Sep 15, 2025 • Age: 19 hours

Current Status

Altitude 549.2 km
Velocity 7.59 km/s
Sub-Earth Point 35.78°N, 96.9°E
Launch Date May 15, 2021
Age 4.3 years
Type internet

Technical Details

Classification Payload
Mass 260.00 kg
Dry Mass 248.00 kg
Total Mass 260.00 kg
Length 0.20 m
Diameter 2.80 m
Span 9.00 m
Shape Box + pan
Manufacturer SPXS
Bus Type Starlink
Phase Status In Orbit
Owner/State SPXS/US

Large Constellations

Loading constellations...